Observations for Trim Market St
| Time | AQI | Temp °C | Hum % | Pres Pa | CO μg/m³ | H₂S μg/m³ | NO μg/m³ | NO₂ μg/m³ | O₃ μg/m³ | SO₂ μg/m³ | PM1 μg/m³ | PM2.5 μg/m³ | PM10 μg/m³ |
|---|---|---|---|---|---|---|---|---|---|---|---|---|---|
| Tuesday 18 August 2026 | |||||||||||||
| 14:49 | 2 | 25.3 | 47 | 65,025 | 0.24 | 0 | 2.55 | 50.57 | 32.5 | 2.86 | 0 | 2.05 | 2.26 |
| 14:44 | 2 | 25.2 | 47 | 65,054 | 0 | 0 | 1.87 | 10.89 | 38.79 | 0 | 0 | 2.05 | 2.26 |
| 14:42 | 2 | 25.1 | 47 | 65,052 | 0 | 0 | 1.92 | 10.72 | 41.12 | 0 | 0 | 2.05 | 2.26 |
| 14:41 | 2 | 25.1 | 47 | 65,029 | 0 | 0 | 1.89 | 9.82 | 39.05 | 0 | 0 | 2.05 | 4.48 |
| 14:37 | 2 | 25.2 | 48 | 64,902 | 0 | 0 | 1.78 | 7.98 | 36.91 | 0 | 0 | 2.03 | 2.23 |
| 14:32 | 2 | 25.3 | 49 | 64,412 | 0 | 0 | 1.98 | 9.74 | 48.38 | 0 | 0 | 1.97 | 2.17 |
| 14:31 | 2 | 25.3 | 50 | 64,331 | 0 | 0 | 2.05 | 11.71 | 5.7 | 0 | 0 | 2.47 | 2.72 |
| 14:30 | 2 | 25.3 | 50 | 64,159 | 0.01 | 0 | 2.04 | 12.09 | 30 | 0 | 0 | 1.95 | 2.14 |
| 14:29 | 2 | 25.3 | 50 | 64,039 | 0 | 0 | 2.03 | 11.73 | 25.34 | 0 | 0 | 1.95 | 2.14 |
| 14:28 | 2 | 25.3 | 50 | 63,964 | 0.13 | 0 | 1.96 | 19.08 | 23.04 | 0 | 0 | 1.95 | 2.15 |
| 14:27 | 2 | 25.2 | 50 | 63,874 | 0 | 0 | 2.02 | 13.12 | 32.14 | 0 | 0 | 1.95 | 2.14 |
| 14:26 | 2 | 25.3 | 50 | 63,954 | 0 | 0 | 1.91 | 12.07 | 40.56 | 0 | 0 | 1.95 | 2.15 |
| 14:25 | 2 | 25.2 | 50 | 64,023 | 0 | 0 | 2.01 | 11.71 | 39.24 | 0 | 0 | 2.47 | 2.71 |
| 14:24 | 2 | 25.2 | 50 | 64,046 | 0 | 0 | 2.02 | 11.43 | 40.46 | 0 | 0 | 1.95 | 2.14 |
| 14:23 | 2 | 25.2 | 50 | 64,017 | 0 | 0 | 2.03 | 11.9 | 32.84 | 0 | 0 | 1.95 | 2.14 |
| 14:22 | 2 | 25.2 | 50 | 63,973 | 0 | 0 | 2.02 | 12.06 | 45.32 | 0 | 0 | 1.95 | 2.14 |
| 14:21 | 2 | 25.1 | 50 | 64,048 | 0.31 | 0 | 2.08 | 11.8 | 36.2 | 0 | 0 | 1.94 | 2.13 |
| 14:20 | 2 | 25.1 | 50 | 64,015 | 0 | 0 | 2 | 10.31 | 29.14 | 0 | 0 | 1.93 | 2.31 |
| 14:19 | 2 | 25.1 | 50 | 63,837 | 0 | 0 | 1.81 | 7.98 | 36.1 | 0 | 0 | 2.43 | 2.67 |
| 14:16 | 2 | 24.9 | 51 | 63,460 | 0 | 0 | 2.19 | 12.24 | 38.48 | 0 | 0 | 1.89 | 2.08 |